STARLINK-35600 (66510 NORAD) Tracking and Keplerian Element Data

This shows tracking and keplerian element data for the satellite.

Feedback or suggestion? Click here.




ElementValue
Catalog66510
NameSTARLINK-35600
Epoch Orbit672
Epoch Day354.24682567
Epoch Year2025
RAAN81.5505
Inclination43.0004
Eccentricity0.0001143
Argument of Perigee255.4316
Mean Anonmoly104.6413
Mean Motion15.40718943
Decay Rate0.00039144
L11 66510U 25263AB 25354.24682567 .00039144 00000+0 93893-3 0 9990
L22 66510 43.0004 81.5505 0001143 255.4316 104.6413 15.40718943 6726



Live tracking and technical data element details for STARLINK-35600 (NORAD 66510). STARLINK-35600 can be tracked NOW for your location showing map with azimuth and elevation plus other details from your city location.







IsCatalogInMostPopularTable: catalog: 66510, numindb: 12
Update: records affected: 1



GetName: 66510 STARLINK-35600

Hit Count: updated at: Tue, 21 Apr 2026 20:42:38 GMT